DW6794 Weather Reports


Display with metric or nautical units.
time (UTC)temp
F
wind
direction
speed
MPH
gust
MPH
rain 1hr
in
rain 24hr
in
rain mn
in
humidity
%
barometer
mb
20140725033344 68 58 0.0 0.0 0.00 0.20 0.20 81 1012.5
20140725032345 68 58 0.0 0.0 0.00 0.20 0.20 80 1012.5
20140725031344 68 58 0.0 0.0 0.00 0.20 0.20 80 1012.5
20140725030344 68 58 0.0 6.0 0.00 0.20 0.20 80 1012.3
20140725025344 69 58 0.0 6.0 0.00 0.20 0.20 80 1012.3
20140725024345 69 57 3.0 8.0 0.00 0.20 0.20 80 1012.3
20140725023345 69 57 3.0 10.0 0.00 0.20 0.20 79 1012.1
20140725022344 70 62 4.0 9.0 0.00 0.20 0.20 79 1012.1
20140725021344 70 76 3.0 7.0 0.00 0.20 0.20 79 1011.9
20140725020345 70 76 5.0 7.0 0.00 0.20 0.20 79 1011.5
20140725015344 71 78 3.0 8.0 0.00 0.20 0.20 79 1011.3
20140725014345 71 78 5.0 9.0 0.00 0.20 0.20 79 1011.0
20140725013345 71 67 4.0 10.0 0.00 0.20 0.20 79 1010.8
20140725012344 72 67 6.0 12.0 0.00 0.20 0.20 79 1010.7
20140725011345 72 61 4.0 7.0 0.00 0.20 0.20 78 1010.7
20140725010345 72 58 6.0 9.0 0.00 0.20 0.20 78 1010.6
20140725005344 73 44 4.0 10.0 0.00 0.20 0.20 78 1010.7
20140725004344 73 67 3.0 7.0 0.00 0.20 0.20 79 1010.5
20140725003345 73 68 2.0 6.0 0.00 0.20 0.20 79 1010.3
20140725002346 74 69 0.0 0.0 0.00 0.20 0.20 79 1010.2
20140725001344 74 69 0.0 0.0 0.00 0.20 0.20 79 1010.2
20140725000345 74 69 0.0 0.0 0.00 0.20 0.20 79 1010.1
20140724235345 74 69 0.0 6.0 0.00 0.20 0.20 78 1010.1
20140724234345 74 69 0.0 1.0 0.00 0.20 0.20 78 1010.0
20140724233345 74 69 1.0 6.0 0.00 0.20 0.20 78 1009.9
20140724232345 74 355 0.0 0.0 0.00 0.20 0.20 78 1009.8
20140724231345 74 355 0.0 1.0 0.04 0.20 0.20 78 1009.7
20140724230344 75 344 0.0 0.0 0.05 0.20 0.20 77 1009.6
20140724225345 75 344 0.0 0.0 0.05 0.20 0.20 76 1009.8
20140724224345 76 5 0.0 0.0 0.05 0.20 0.20 75 1009.7
20140724223344 76 5 0.0 0.0 0.05 0.20 0.20 74 1009.7
20140724222345 77 5 0.0 0.0 0.05 0.20 0.20 73 1009.3
20140724221345 77 5 0.0 9.0 0.01 0.16 0.16 71 1009.1
20140724220345 78 10 1.0 13.0 0.00 0.15 0.15 71 1009.0
20140724215345 79 260 1.0 7.0 0.00 0.15 0.15 72 1009.0
20140724214345 79 19 0.0 1.0 0.00 0.15 0.15 73 1009.0
20140724213345 79 19 0.0 6.0 0.00 0.15 0.15 72 1008.8
20140724212345 79 20 1.0 3.0 0.00 0.15 0.15 72 1008.6
20140724211345 79 14 0.0 5.0 0.00 0.15 0.15 73 1008.6
20140724210345 79 13 0.0 6.0 0.00 0.15 0.15 72 1008.5
20140724205345 80 5 2.0 9.0 0.00 0.15 0.15 71 1008.4
20140724204345 80 32 1.0 12.0 0.00 0.15 0.15 72 1008.4
20140724203345 79 238 0.0 6.0 0.00 0.15 0.15 73 1008.0
20140724202345 79 256 4.0 17.0 0.00 0.15 0.15 71 1008.2
20140724201346 81 271 7.0 20.0 0.00 0.15 0.15 69 1008.0
20140724200346 81 250 4.0 16.0 0.00 0.15 0.15 69 1007.9
20140724195347 82 224 5.0 16.0 0.00 0.15 0.15 69 1007.8
20140724194346 83 261 10.0 15.0 0.00 0.15 0.15 67 1007.8
20140724193347 82 284 10.0 16.0 0.00 0.15 0.15 68 1008.0
20140724192346 82 244 9.0 16.0 0.00 0.15 0.15 68 1008.0
20140724191346 82 253 10.0 17.0 0.00 0.15 0.15 68 1007.9
20140724190347 82 219 6.0 13.0 0.00 0.15 0.15 71 1007.8
20140724185347 82 246 9.0 14.0 0.00 0.15 0.15 69 1008.0
20140724184347 81 249 8.0 14.0 0.00 0.15 0.15 69 1007.9
20140724183346 81 259 7.0 13.0 0.00 0.15 0.15 72 1007.9
20140724182347 81 251 5.0 17.0 0.00 0.15 0.15 73 1007.9
20140724181346 81 252 9.0 17.0 0.00 0.15 0.15 72 1008.1
20140724180347 81 192 4.0 15.0 0.00 0.15 0.15 74 1008.2
20140724175347 81 246 6.0 12.0 0.00 0.15 0.15 75 1008.5
20140724174347 80 248 7.0 12.0 0.00 0.15 0.15 77 1008.8
20140724173347 80 263 5.0 12.0 0.00 0.15 0.15 77 1008.9
20140724172347 80 259 7.0 12.0 0.00 0.15 0.15 77 1009.1
20140724171347 79 273 8.0 12.0 0.01 0.15 0.15 77 1009.5
20140724170347 79 269 6.0 12.0 0.01 0.15 0.15 81 1009.5
20140724165347 79 250 5.0 13.0 0.01 0.15 0.15 81 1009.6
20140724164346 78 253 4.0 12.0 0.01 0.15 0.15 82 1009.9
20140724163346 78 245 6.0 12.0 0.01 0.15 0.15 84 1010.0
20140724162346 77 259 6.0 12.0 0.01 0.15 0.15 84 1010.0
20140724161346 77 255 3.0 8.0 0.03 0.14 0.14 87 1009.9
20140724160346 76 312 1.0 7.0 0.03 0.14 0.14 88 1010.0
20140724155346 75 270 5.0 12.0 0.03 0.14 0.14 88 1010.2
20140724154346 75 230 2.0 7.0 0.03 0.14 0.14 88 1010.2
20140724153346 74 192 3.0 5.0 0.03 0.14 0.14 88 1010.2
20140724152346 74 212 0.0 3.0 0.04 0.14 0.14 88 1010.2
20140724151346 74 222 1.0 8.0 0.11 0.12 0.11 88 1010.3
20140724150346 74 234 2.0 5.0 0.11 0.16 0.11 89 1010.3
20140724145346 73 223 0.0 2.0 0.11 0.30 0.11 88 1010.4
20140724144347 73 225 0.0 0.0 0.11 0.34 0.11 88 1010.4
20140724143346 73 225 0.0 2.0 0.11 0.34 0.11 88 1010.4
20140724142346 73 229 1.0 13.0 0.10 0.34 0.10 87 1010.5
20140724141347 74 253 3.0 7.0 0.00 0.24 0.00 87 1010.4
20140724140346 73 238 3.0 7.0 0.00 0.24 0.00 88 1010.3
20140724135346 73 297 0.0 3.0 0.00 0.24 0.00 88 1010.2
20140724134347 73 297 0.0 0.0 0.00 0.25 0.00 88 1010.3
20140724133346 72 297 0.0 0.0 0.00 0.26 0.00 88 1010.4
20140724132346 72 297 0.0 0.0 0.00 0.27 0.00 88 1010.3
20140724131347 71 297 0.0 0.0 0.00 0.28 0.00 88 1010.4
20140724130347 71 297 0.0 0.0 0.00 0.30 0.00 88 1010.5
20140724125347 71 297 0.0 0.0 0.00 0.31 0.00 88 1010.3
20140724124347 70 297 0.0 0.0 0.00 0.31 0.00 88 1010.3
20140724123346 70 297 0.0 0.0 0.00 0.34 0.00 88 1010.2
20140724122347 69 297 0.0 0.0 0.00 0.34 0.00 89 1010.2
20140724121346 69 297 0.0 0.0 0.00 0.34 0.00 88 1009.8
20140724120346 69 297 0.0 0.0 0.00 0.34 0.00 88 1009.7
20140724115347 69 297 0.0 0.0 0.00 0.34 0.00 88 1009.6
20140724114346 69 297 0.0 0.0 0.00 0.34 0.00 88 1009.6
20140724113347 68 297 0.0 0.0 0.00 0.34 0.00 88 1009.8
20140724112347 68 297 0.0 0.0 0.00 0.34 0.00 88 1009.9
20140724111347 68 297 0.0 0.0 0.00 0.34 0.00 88 1009.9
20140724110347 68 297 0.0 0.0 0.00 0.34 0.00 88 1010.1
20140724105347 68 297 0.0 0.0 0.00 0.34 0.00 88 1009.8
20140724104347 68 297 0.0 0.0 0.00 0.34 0.00 88 1009.8
20140724103347 68 297 0.0 0.0 0.00 0.35 0.00 88 1009.7
20140724102346 68 297 0.0 0.0 0.00 0.35 0.00 88 1009.6
20140724101347 68 297 0.0 0.0 0.00 0.35 0.00 88 1009.6
20140724100347 68 297 0.0 0.0 0.00 0.35 0.00 88 1009.6
20140724095347 68 297 0.0 0.0 0.00 0.35 0.00 87 1009.6
20140724094347 68 297 0.0 0.0 0.00 0.35 0.00 88 1009.3
20140724093348 68 297 0.0 0.0 0.00 0.35 0.00 88 1009.2
20140724092347 68 297 0.0 0.0 0.00 0.35 0.00 87 1009.2
20140724091347 68 297 0.0 0.0 0.00 0.35 0.00 87 1009.3
20140724090347 68 297 0.0 0.0 0.00 0.35 0.00 87 1009.3
20140724085347 68 297 0.0 0.0 0.00 0.35 0.00 87 1009.1
20140724084348 68 297 0.0 0.0 0.00 0.35 0.00 87 1009.2
20140724083348 68 297 0.0 0.0 0.00 0.35 0.00 87 1009.2
20140724082348 68 297 0.0 0.0 0.00 0.35 0.00 87 1009.0
20140724081348 68 297 0.0 0.0 0.00 0.35 0.00 87 1009.2
20140724080348 68 297 0.0 0.0 0.00 0.35 0.00 87 1009.2
20140724075349 68 297 0.0 0.0 0.00 0.35 0.00 87 1009.4
20140724074348 68 297 0.0 0.0 0.00 0.35 0.00 87 1009.5
20140724073349 68 297 0.0 0.0 0.00 0.35 0.00 87 1009.5
20140724072349 67 297 0.0 0.0 0.00 0.35 0.00 87 1009.6
20140724071349 67 297 0.0 0.0 0.00 0.35 0.00 87 1009.7
20140724070348 67 297 0.0 0.0 0.00 0.35 0.00 86 1010.1
20140724065348 67 297 0.0 0.0 0.00 0.35 0.00 86 1010.2
20140724064349 67 297 0.0 0.0 0.00 0.35 0.00 85 1010.3
20140724063349 67 297 0.0 0.0 0.00 0.35 0.00 84 1010.4
20140724062349 68 297 0.0 0.0 0.00 0.35 0.00 85 1010.4
20140724061348 68 297 0.0 0.0 0.00 0.35 0.00 85 1010.4
20140724060349 68 297 0.0 0.0 0.00 0.35 0.00 85 1010.6
20140724055348 68 297 0.0 0.0 0.00 0.35 0.00 85 1010.9
20140724054349 68 297 0.0 0.0 0.00 0.35 0.00 84 1010.9
20140724053349 68 297 0.0 0.0 0.00 0.35 0.00 84 1011.1
20140724052349 68 297 0.0 0.0 0.00 0.35 0.00 84 1011.0
20140724051349 68 297 0.0 0.0 0.00 0.35 0.00 84 1011.3
20140724050351 68 297 0.0 0.0 0.00 0.35 0.00 84 1011.2
20140724045348 69 297 0.0 0.0 0.00 0.35 0.00 84 1011.3
20140724044349 69 297 0.0 0.0 0.00 0.35 0.00 84 1011.3
20140724043349 69 297 0.0 0.0 0.00 0.35 0.00 83 1011.4
20140724042348 69 297 0.0 0.0 0.00 0.35 0.00 83 1011.3
20140724041348 70 297 0.0 0.0 0.00 0.35 0.00 83 1011.4
20140724040348 70 297 0.0 0.0 0.00 0.35 0.00 82 1011.4
20140724035349 70 297 0.0 0.0 0.00 0.35 0.35 82 1011.4
20140724034348 70 297 0.0 0.0 0.00 0.35 0.35 82 1011.4